| time (UTC) | temp F | wind direction | speed knots | gust knots | rain 1hr in | rain 24hr in | rain mn in | humidity % | barometer mb |
| 20260505153120 | 61 | 110 | 2.6 | 7.0 | 0.22 | 0.44 | 0.37 | 89 | 1009.5 |
| 20260505152119 | 61 | 144 | 3.5 | 6.1 | 0.24 | 0.44 | 0.37 | 89 | 1009.2 |
| 20260505151619 | 60 | 127 | 3.5 | 8.7 | 0.25 | 0.43 | 0.35 | 89 | 1009.4 |
| 20260505150619 | 60 | 122 | 3.5 | 9.6 | 0.24 | 0.39 | 0.32 | 89 | 1009.5 |
| 20260505150119 | 60 | 132 | 3.5 | 7.8 | 0.19 | 0.35 | 0.28 | 88 | 1009.5 |
| 20260505140620 | 63 | 112 | 3.5 | 8.7 | 0.00 | 0.16 | 0.09 | 78 | 1010.0 |
| 20260505140120 | 63 | 106 | 2.6 | 7.0 | 0.00 | 0.16 | 0.09 | 78 | 1010.0 |
| 20260505130119 | 62 | 113 | 2.6 | 6.1 | 0.05 | 0.16 | 0.09 | 87 | 1010.4 |
| 20260505124619 | 60 | 109 | 3.5 | 7.8 | 0.05 | 0.16 | 0.09 | 87 | 1010.4 |
| 20260505124120 | 60 | 118 | 4.3 | 10.4 | 0.04 | 0.15 | 0.08 | 85 | 1010.3 |
| 20260505123618 | 60 | 120 | 4.3 | 10.4 | 0.03 | 0.14 | 0.07 | 83 | 1010.6 |
| 20260505123120 | 61 | 114 | 3.5 | 8.7 | 0.01 | 0.12 | 0.05 | 80 | 1010.7 |
| 20260505122619 | 62 | 127 | 3.5 | 7.0 | 0.00 | 0.11 | 0.04 | 77 | 1011.0 |
| 20260505122119 | 62 | 117 | 4.3 | 7.8 | 0.00 | 0.11 | 0.04 | 75 | 1011.0 |
| 20260505121619 | 63 | 111 | 5.2 | 12.2 | 0.00 | 0.11 | 0.04 | 73 | 1011.0 |
| 20260505121118 | 64 | 137 | 4.3 | 8.7 | 0.00 | 0.11 | 0.04 | 72 | 1010.9 |
| 20260505120619 | 64 | 111 | 3.5 | 10.4 | 0.00 | 0.11 | 0.04 | 72 | 1010.9 |
| 20260505120119 | 64 | 142 | 4.3 | 12.2 | 0.00 | 0.11 | 0.04 | 72 | 1010.8 |
| 20260505115619 | 64 | 108 | 4.3 | 12.2 | 0.00 | 0.11 | 0.04 | 70 | 1011.1 |
| 20260505115118 | 65 | 113 | 4.3 | 9.6 | 0.00 | 0.11 | 0.04 | 71 | 1010.9 |
| 20260505114619 | 65 | 117 | 4.3 | 9.6 | 0.00 | 0.11 | 0.04 | 71 | 1010.9 |
| 20260505114119 | 65 | 124 | 4.3 | 7.0 | 0.00 | 0.11 | 0.04 | 71 | 1011.0 |
| 20260505113619 | 66 | 114 | 4.3 | 12.2 | 0.00 | 0.11 | 0.04 | 69 | 1011.1 |
| 20260505112619 | 65 | 104 | 4.3 | 7.0 | 0.00 | 0.11 | 0.04 | 72 | 1011.1 |
| 20260505112119 | 65 | 113 | 5.2 | 9.6 | 0.00 | 0.11 | 0.04 | 70 | 1011.2 |
| 20260505111618 | 66 | 117 | 3.5 | 9.6 | 0.00 | 0.11 | 0.04 | 69 | 1011.2 |
| 20260505111119 | 67 | 113 | 2.6 | 8.7 | 0.00 | 0.11 | 0.04 | 69 | 1011.0 |
| 20260505110619 | 66 | 90 | 2.6 | 5.2 | 0.00 | 0.11 | 0.04 | 72 | 1010.9 |
| 20260505101620 | 68 | 105 | 2.6 | 7.0 | 0.00 | 0.11 | 0.04 | 69 | 1010.9 |
| 20260505101119 | 67 | 85 | 2.6 | 7.0 | 0.00 | 0.11 | 0.04 | 71 | 1011.0 |
| 20260505100619 | 66 | 91 | 2.6 | 7.0 | 0.00 | 0.11 | 0.04 | 71 | 1011.0 |
| 20260505100119 | 66 | 116 | 2.6 | 7.0 | 0.00 | 0.11 | 0.04 | 72 | 1011.0 |
| 20260505095619 | 66 | 87 | 2.6 | 7.8 | 0.00 | 0.11 | 0.04 | 71 | 1011.0 |
| 20260505095119 | 67 | 77 | 1.7 | 6.1 | 0.00 | 0.11 | 0.04 | 70 | 1011.1 |
| 20260505094619 | 67 | 102 | 2.6 | 6.1 | 0.00 | 0.11 | 0.04 | 69 | 1011.1 |
| 20260505093619 | 70 | 98 | 1.7 | 3.5 | 0.00 | 0.11 | 0.04 | 64 | 1011.2 |
| 20260505093118 | 71 | 77 | 1.7 | 7.0 | 0.00 | 0.11 | 0.04 | 66 | 1011.1 |
| 20260505092620 | 70 | 78 | 1.7 | 4.3 | 0.00 | 0.11 | 0.04 | 66 | 1011.1 |
| 20260505092119 | 70 | 125 | 1.7 | 7.0 | 0.00 | 0.11 | 0.04 | 65 | 1011.1 |
| 20260505091620 | 69 | 128 | 1.7 | 5.2 | 0.00 | 0.11 | 0.04 | 66 | 1011.1 |
| 20260505091119 | 69 | 120 | 1.7 | 5.2 | 0.00 | 0.11 | 0.04 | 66 | 1011.1 |
| 20260505090619 | 69 | 105 | 1.7 | 3.5 | 0.00 | 0.11 | 0.04 | 66 | 1011.1 |
| 20260505085619 | 67 | 204 | 1.7 | 4.3 | 0.00 | 0.11 | 0.04 | 71 | 1011.1 |
| 20260505084618 | 65 | 183 | 0.9 | 1.7 | 0.00 | 0.11 | 0.04 | 71 | 1011.1 |
| 20260505083620 | 66 | 154 | 0.9 | 3.5 | 0.00 | 0.11 | 0.04 | 70 | 1011.0 |
| 20260505083119 | 67 | 162 | 0.9 | 1.7 | 0.00 | 0.11 | 0.04 | 69 | 1011.2 |
| 20260505082619 | 67 | 161 | 1.7 | 3.5 | 0.00 | 0.11 | 0.04 | 69 | 1011.2 |
| 20260505081618 | 66 | 179 | 1.7 | 3.5 | 0.00 | 0.11 | 0.04 | 70 | 1011.2 |
| 20260505080619 | 67 | 201 | 0.9 | 6.1 | 0.00 | 0.11 | 0.04 | 69 | 1011.3 |
| 20260505080119 | 67 | 174 | 0.9 | 2.6 | 0.00 | 0.11 | 0.04 | 71 | 1011.3 |
| 20260505075619 | 66 | 139 | 0.9 | 3.5 | 0.00 | 0.11 | 0.04 | 69 | 1011.4 |
| 20260505074619 | 66 | 128 | 0.9 | 3.5 | 0.00 | 0.11 | 0.04 | 71 | 1011.3 |
| 20260505074119 | 66 | 162 | 0.9 | 3.5 | 0.00 | 0.11 | 0.04 | 71 | 1011.4 |
| 20260505073618 | 66 | 157 | 0.9 | 1.7 | 0.00 | 0.11 | 0.04 | 72 | 1011.4 |
| 20260505072620 | 64 | 157 | 0.9 | 3.5 | 0.00 | 0.11 | 0.04 | 74 | 1011.3 |
| 20260505072119 | 64 | 187 | 0.9 | 2.6 | 0.00 | 0.11 | 0.04 | 75 | 1011.3 |
| 20260505071618 | 63 | 187 | 0.9 | 1.7 | 0.00 | 0.11 | 0.04 | 77 | 1011.2 |
| 20260505070618 | 62 | 242 | 0.9 | 3.5 | 0.00 | 0.11 | 0.04 | 80 | 1011.3 |
| 20260505070119 | 62 | 209 | 0.9 | 3.5 | 0.00 | 0.11 | 0.04 | 81 | 1011.3 |
| 20260505065618 | 61 | 222 | 0.9 | 2.6 | 0.00 | 0.11 | 0.04 | 82 | 1011.4 |
| 20260505065119 | 61 | 202 | 0.9 | 2.6 | 0.00 | 0.11 | 0.04 | 82 | 1011.4 |
| 20260505064619 | 61 | 230 | 1.7 | 5.2 | 0.00 | 0.11 | 0.04 | 82 | 1011.4 |
| 20260505063619 | 60 | 200 | 0.9 | 3.5 | 0.00 | 0.11 | 0.04 | 83 | 1011.4 |
| 20260505063119 | 60 | 228 | 0.9 | 2.6 | 0.00 | 0.11 | 0.04 | 84 | 1011.4 |
| 20260505062618 | 60 | 188 | 0.9 | 4.3 | 0.00 | 0.11 | 0.04 | 84 | 1011.4 |
| 20260505061119 | 58 | 203 | 1.7 | 3.5 | 0.00 | 0.11 | 0.04 | 88 | 1011.4 |
| 20260505060618 | 58 | 214 | 1.7 | 2.6 | 0.00 | 0.11 | 0.04 | 89 | 1011.4 |
| 20260505060119 | 58 | 227 | 1.7 | 3.5 | 0.00 | 0.11 | 0.04 | 89 | 1011.3 |
| 20260505055120 | 57 | 242 | 1.7 | 3.5 | 0.00 | 0.11 | 0.04 | 88 | 1011.3 |
| 20260505054618 | 57 | 223 | 1.7 | 3.5 | 0.00 | 0.11 | 0.04 | 88 | 1011.3 |
| 20260505054118 | 57 | 223 | 0.9 | 2.6 | 0.00 | 0.11 | 0.04 | 88 | 1011.2 |
| 20260505053618 | 56 | 6 | 0.9 | 1.7 | 0.00 | 0.11 | 0.04 | 88 | 1011.1 |
| 20260505053120 | 56 | 5 | 0.9 | 1.7 | 0.00 | 0.11 | 0.04 | 88 | 1011.0 |
| 20260505052619 | 56 | 6 | 0.0 | 1.7 | 0.00 | 0.11 | 0.04 | 88 | 1011.0 |
| 20260505052119 | 56 | 0 | 0.0 | 0.0 | 0.00 | 0.11 | 0.04 | 88 | 1011.0 |
| 20260505051618 | 56 | 6 | 0.0 | 1.7 | 0.00 | 0.11 | 0.04 | 88 | 1010.9 |
| 20260505051119 | 55 | 0 | 0.0 | 0.0 | 0.00 | 0.11 | 0.04 | 88 | 1010.9 |
| 20260505050619 | 55 | 0 | 0.0 | 0.0 | 0.00 | 0.11 | 0.04 | 88 | 1010.9 |
| 20260505041618 | 55 | 6 | 0.9 | 1.7 | 0.00 | 0.11 | 0.04 | 89 | 1010.7 |
| 20260505041119 | 55 | 6 | 0.0 | 1.7 | 0.00 | 0.11 | 0.04 | 88 | 1010.7 |
| 20260505040119 | 55 | 6 | 0.9 | 0.9 | 0.00 | 0.11 | 0.04 | 88 | 1010.8 |
| 20260505035618 | 55 | 5 | 0.9 | 1.7 | 0.00 | 0.11 | 0.04 | 88 | 1010.7 |
| 20260505035120 | 56 | 6 | 0.0 | 1.7 | 0.00 | 0.11 | 0.04 | 88 | 1010.7 |
| 20260505034619 | 56 | 6 | 0.0 | 0.9 | 0.00 | 0.11 | 0.04 | 88 | 1010.8 |
| 20260505034119 | 56 | 6 | 0.0 | 0.9 | 0.00 | 0.11 | 0.04 | 88 | 1010.8 |
| 20260505033618 | 56 | 5 | 0.9 | 0.9 | 0.00 | 0.11 | 0.04 | 88 | 1010.9 |
| 20260505033119 | 56 | 6 | 0.9 | 0.9 | 0.00 | 0.11 | 0.04 | 88 | 1010.9 |
| 20260505032618 | 56 | 5 | 0.9 | 1.7 | 0.00 | 0.11 | 0.04 | 87 | 1010.9 |
| 20260505032119 | 57 | 2 | 0.9 | 2.6 | 0.00 | 0.11 | 0.04 | 87 | 1010.9 |
| 20260505031619 | 57 | 266 | 0.9 | 2.6 | 0.00 | 0.11 | 0.04 | 86 | 1011.0 |
| 20260505030619 | 57 | 266 | 0.9 | 1.7 | 0.00 | 0.11 | 0.04 | 86 | 1011.0 |
| 20260505025619 | 58 | 266 | 0.0 | 1.7 | 0.00 | 0.11 | 0.04 | 85 | 1011.0 |
| 20260505025119 | 58 | 266 | 0.0 | 1.7 | 0.00 | 0.11 | 0.04 | 85 | 1011.0 |
| 20260505024119 | 57 | 266 | 0.9 | 2.6 | 0.00 | 0.11 | 0.04 | 85 | 1010.9 |
| 20260505023618 | 57 | 266 | 0.9 | 1.7 | 0.00 | 0.11 | 0.04 | 85 | 1010.8 |
| 20260505023119 | 57 | 266 | 0.9 | 2.6 | 0.00 | 0.11 | 0.04 | 85 | 1010.8 |
| 20260505022620 | 57 | 266 | 0.9 | 0.9 | 0.00 | 0.11 | 0.04 | 84 | 1010.8 |
| 20260505022119 | 58 | 266 | 1.7 | 2.6 | 0.00 | 0.11 | 0.04 | 85 | 1010.8 |
| 20260505021618 | 57 | 244 | 1.7 | 2.6 | 0.00 | 0.11 | 0.04 | 84 | 1010.8 |
| 20260505020619 | 57 | 246 | 2.6 | 3.5 | 0.00 | 0.11 | 0.04 | 85 | 1010.8 |
| 20260505020119 | 57 | 237 | 2.6 | 3.5 | 0.00 | 0.11 | 0.04 | 85 | 1010.8 |
| 20260505015618 | 57 | 227 | 2.6 | 3.5 | 0.00 | 0.11 | 0.04 | 86 | 1010.7 |
| 20260505015119 | 56 | 218 | 2.6 | 3.5 | 0.00 | 0.11 | 0.04 | 87 | 1010.7 |
| 20260505014618 | 57 | 229 | 2.6 | 3.5 | 0.00 | 0.11 | 0.04 | 87 | 1010.7 |
| 20260505014119 | 57 | 224 | 3.5 | 3.5 | 0.00 | 0.11 | 0.04 | 87 | 1010.7 |
| 20260505013618 | 57 | 217 | 2.6 | 5.2 | 0.00 | 0.11 | 0.04 | 87 | 1010.7 |
| 20260505013119 | 57 | 206 | 1.7 | 4.3 | 0.00 | 0.11 | 0.04 | 87 | 1010.7 |
| 20260505012619 | 57 | 254 | 0.9 | 1.7 | 0.00 | 0.11 | 0.04 | 87 | 1010.7 |
| 20260505012119 | 57 | 252 | 1.7 | 1.7 | 0.00 | 0.11 | 0.04 | 87 | 1010.7 |
| 20260505011618 | 57 | 225 | 2.6 | 4.3 | 0.00 | 0.11 | 0.04 | 87 | 1010.8 |
| 20260505010119 | 57 | 220 | 2.6 | 5.2 | 0.00 | 0.11 | 0.04 | 88 | 1010.8 |
| 20260505005119 | 57 | 262 | 0.9 | 0.9 | 0.00 | 0.11 | 0.04 | 89 | 1010.8 |
| 20260505004119 | 57 | 254 | 1.7 | 3.5 | 0.00 | 0.11 | 0.04 | 89 | 1010.9 |
| 20260505003618 | 57 | 276 | 1.7 | 2.6 | 0.00 | 0.11 | 0.04 | 89 | 1010.9 |
| 20260505003120 | 57 | 275 | 1.7 | 3.5 | 0.00 | 0.11 | 0.04 | 89 | 1010.9 |
| 20260505002618 | 57 | 315 | 0.9 | 2.6 | 0.00 | 0.11 | 0.04 | 90 | 1010.9 |
| 20260505002118 | 57 | 316 | 0.9 | 2.6 | 0.00 | 0.11 | 0.04 | 90 | 1011.0 |
| 20260505001619 | 57 | 278 | 0.9 | 2.6 | 0.00 | 0.11 | 0.04 | 90 | 1011.0 |
| 20260505001118 | 57 | 279 | 1.7 | 2.6 | 0.00 | 0.11 | 0.04 | 90 | 1011.0 |
| 20260505000119 | 57 | 316 | 1.7 | 4.3 | 0.00 | 0.11 | 0.04 | 90 | 1011.0 |
| 20260504235619 | 57 | 312 | 1.7 | 4.3 | 0.00 | 0.11 | 0.04 | 90 | 1011.0 |
| 20260504234120 | 57 | 348 | 1.7 | 3.5 | 0.00 | 0.11 | 0.04 | 90 | 1010.9 |
| 20260504233618 | 57 | 326 | 0.9 | 4.3 | 0.00 | 0.11 | 0.04 | 90 | 1010.9 |
| 20260504233118 | 57 | 316 | 0.9 | 1.7 | 0.00 | 0.11 | 0.04 | 90 | 1010.8 |
| 20260504232618 | 57 | 316 | 0.9 | 2.6 | 0.00 | 0.11 | 0.04 | 90 | 1010.6 |
| 20260504231119 | 57 | 316 | 2.6 | 4.3 | 0.02 | 0.11 | 0.04 | 90 | 1010.6 |
| 20260504230619 | 57 | 319 | 2.6 | 4.3 | 0.03 | 0.11 | 0.04 | 90 | 1010.5 |
| 20260504225618 | 57 | 296 | 1.7 | 4.3 | 0.05 | 0.11 | 0.04 | 89 | 1010.5 |
| 20260504225119 | 57 | 302 | 1.7 | 4.3 | 0.05 | 0.11 | 0.04 | 89 | 1010.4 |
| 20260504224618 | 57 | 308 | 1.7 | 4.3 | 0.05 | 0.11 | 0.04 | 89 | 1010.3 |
| 20260504224118 | 57 | 306 | 1.7 | 3.5 | 0.06 | 0.11 | 0.04 | 89 | 1010.3 |
| 20260504223619 | 57 | 318 | 1.7 | 2.6 | 0.06 | 0.11 | 0.04 | 89 | 1010.3 |
| 20260504223119 | 58 | 9 | 1.7 | 2.6 | 0.06 | 0.11 | 0.04 | 88 | 1010.4 |
| 20260504222618 | 58 | 5 | 1.7 | 2.6 | 0.05 | 0.10 | 0.03 | 88 | 1010.3 |
| 20260504222119 | 58 | 345 | 2.6 | 5.2 | 0.05 | 0.10 | 0.03 | 87 | 1010.4 |
| 20260504220619 | 60 | 286 | 2.6 | 8.7 | 0.02 | 0.08 | 0.01 | 88 | 1010.9 |
| 20260504220122 | 60 | 305 | 1.7 | 5.2 | 0.02 | 0.07 | 0.00 | 89 | 1011.0 |
| 20260504215618 | 61 | 283 | 0.9 | 2.6 | 0.01 | 0.06 | 0.06 | 89 | 1010.9 |
| 20260504214619 | 62 | 301 | 0.9 | 2.6 | 0.01 | 0.06 | 0.06 | 90 | 1010.9 |
| 20260504214118 | 62 | 6 | 0.9 | 2.6 | 0.00 | 0.06 | 0.06 | 90 | 1010.9 |
| 20260504213618 | 62 | 11 | 0.9 | 2.6 | 0.00 | 0.06 | 0.06 | 90 | 1010.8 |
| 20260504213119 | 62 | 264 | 0.9 | 2.6 | 0.00 | 0.06 | 0.06 | 90 | 1010.8 |
| 20260504212619 | 62 | 263 | 0.9 | 2.6 | 0.00 | 0.06 | 0.06 | 90 | 1010.9 |
| 20260504212118 | 62 | 264 | 0.9 | 2.6 | 0.00 | 0.06 | 0.06 | 90 | 1011.1 |
| 20260504211619 | 62 | 264 | 0.9 | 3.5 | 0.00 | 0.06 | 0.06 | 90 | 1011.1 |
| 20260504210120 | 62 | 263 | 0.0 | 1.7 | 0.00 | 0.06 | 0.06 | 90 | 1010.9 |
| 20260504205619 | 62 | 264 | 0.0 | 0.9 | 0.00 | 0.06 | 0.06 | 90 | 1010.9 |
| 20260504205119 | 62 | 264 | 0.9 | 0.9 | 0.00 | 0.06 | 0.06 | 90 | 1010.8 |
| 20260504204119 | 62 | 264 | 0.0 | 1.7 | 0.00 | 0.06 | 0.06 | 90 | 1010.8 |
| 20260504203618 | 62 | 264 | 0.0 | 1.7 | 0.00 | 0.06 | 0.06 | 90 | 1010.7 |
| 20260504203118 | 62 | 264 | 0.0 | 0.9 | 0.00 | 0.06 | 0.06 | 90 | 1010.7 |
| 20260504202119 | 62 | 0 | 0.0 | 0.0 | 0.00 | 0.06 | 0.06 | 90 | 1010.5 |
| 20260504201618 | 62 | 264 | 0.9 | 2.6 | 0.00 | 0.06 | 0.06 | 90 | 1010.5 |
| 20260504201120 | 63 | 264 | 0.0 | 0.9 | 0.00 | 0.06 | 0.06 | 90 | 1010.5 |
| 20260504200619 | 63 | 264 | 0.0 | 0.9 | 0.00 | 0.06 | 0.06 | 90 | 1010.5 |
| 20260504200119 | 63 | 263 | 0.9 | 0.9 | 0.00 | 0.06 | 0.06 | 90 | 1010.5 |
| 20260504195618 | 62 | 264 | 0.9 | 1.7 | 0.00 | 0.06 | 0.06 | 90 | 1010.4 |
| 20260504195119 | 62 | 263 | 0.9 | 1.7 | 0.00 | 0.06 | 0.06 | 90 | 1010.4 |
| 20260504194618 | 62 | 263 | 0.9 | 1.7 | 0.00 | 0.06 | 0.06 | 89 | 1010.3 |
| 20260504193618 | 63 | 264 | 0.0 | 0.9 | 0.00 | 0.06 | 0.06 | 89 | 1010.1 |
| 20260504193119 | 63 | 264 | 0.0 | 0.9 | 0.00 | 0.06 | 0.06 | 90 | 1010.0 |
| 20260504192119 | 63 | 201 | 0.0 | 0.9 | 0.00 | 0.06 | 0.06 | 89 | 1009.8 |
| 20260504191619 | 63 | 201 | 0.0 | 0.9 | 0.00 | 0.06 | 0.06 | 89 | 1009.6 |
| 20260504191118 | 63 | 202 | 0.9 | 1.7 | 0.00 | 0.06 | 0.06 | 89 | 1009.4 |
| 20260504190618 | 63 | 202 | 0.9 | 2.6 | 0.00 | 0.06 | 0.06 | 89 | 1009.4 |
| 20260504185618 | 63 | 190 | 1.7 | 2.6 | 0.00 | 0.06 | 0.06 | 89 | 1009.3 |
| 20260504185118 | 63 | 162 | 0.9 | 2.6 | 0.00 | 0.06 | 0.06 | 89 | 1009.2 |
| 20260504184619 | 63 | 165 | 0.9 | 3.5 | 0.00 | 0.06 | 0.06 | 89 | 1009.2 |
| 20260504183618 | 64 | 188 | 0.9 | 2.6 | 0.00 | 0.06 | 0.06 | 89 | 1009.1 |
| 20260504183118 | 64 | 149 | 0.9 | 2.6 | 0.00 | 0.06 | 0.06 | 89 | 1009.1 |
| 20260504182618 | 64 | 198 | 0.9 | 2.6 | 0.00 | 0.06 | 0.06 | 89 | 1009.2 |
| 20260504182118 | 64 | 223 | 1.7 | 3.5 | 0.00 | 0.06 | 0.06 | 89 | 1009.2 |
| 20260504181619 | 64 | 183 | 1.7 | 3.5 | 0.00 | 0.06 | 0.06 | 89 | 1009.3 |
| 20260504181118 | 64 | 163 | 1.7 | 3.5 | 0.00 | 0.06 | 0.06 | 89 | 1009.2 |
| 20260504180618 | 64 | 168 | 1.7 | 5.2 | 0.00 | 0.06 | 0.06 | 89 | 1009.2 |
| 20260504180118 | 64 | 184 | 0.9 | 4.3 | 0.00 | 0.06 | 0.06 | 89 | 1009.3 |
| 20260504175618 | 64 | 192 | 0.9 | 2.6 | 0.00 | 0.06 | 0.06 | 89 | 1009.2 |
| 20260504175118 | 64 | 191 | 0.9 | 2.6 | 0.00 | 0.06 | 0.06 | 89 | 1009.2 |
| 20260504174618 | 65 | 191 | 0.0 | 0.9 | 0.00 | 0.06 | 0.06 | 89 | 1009.3 |
| 20260504174119 | 65 | 192 | 0.0 | 3.5 | 0.00 | 0.06 | 0.06 | 89 | 1009.2 |
| 20260504173618 | 65 | 303 | 0.9 | 1.7 | 0.01 | 0.06 | 0.06 | 89 | 1009.3 |
| 20260504173119 | 65 | 275 | 0.9 | 3.5 | 0.01 | 0.06 | 0.06 | 89 | 1009.3 |
| 20260504172618 | 65 | 289 | 0.9 | 1.7 | 0.01 | 0.06 | 0.06 | 89 | 1009.3 |
| 20260504172119 | 65 | 67 | 0.9 | 1.7 | 0.01 | 0.06 | 0.06 | 89 | 1009.3 |
| 20260504171118 | 65 | 159 | 0.9 | 3.5 | 0.02 | 0.06 | 0.06 | 89 | 1009.3 |
| 20260504170618 | 65 | 165 | 0.9 | 2.6 | 0.04 | 0.06 | 0.06 | 89 | 1009.4 |
| 20260504170119 | 65 | 157 | 0.9 | 2.6 | 0.06 | 0.06 | 0.06 | 89 | 1009.5 |
| 20260504160120 | 66 | 179 | 1.7 | 3.5 | 0.00 | 0.00 | 0.00 | 79 | 1009.9 |